This is the latest recevied weather packets stored in our database for station/object LY3FF-10. If no packets are shown the sender has not sent any weather packets the latest 10 day(s).
| Time | Temp. | Humidity | Pressure | Rain* | Wind** | Luminosity | Snow |
|---|---|---|---|---|---|---|---|
| 1787919010 | 35.56° C | 48% | 1004.3 hPa | - | - | - | - |
| 1787918130 | 34.44° C | 50% | 1004.5 hPa | - | - | - | - |
| 1787917295 | 37.78° C | 50% | 1004.6 hPa | - | - | - | - |
| 1787916550 | 32.22° C | 52% | 1004.6 hPa | - | - | - | - |
| 1787915790 | 23.89° C | 51% | 1004.9 hPa | - | - | - | - |
| 1787914997 | 40.56° C | 52% | 1004.9 hPa | - | - | - | - |
| 1787914124 | 39.44° C | 56% | 1004.9 hPa | - | - | - | - |
| 1787913390 | 22.78° C | 54% | 1004.8 hPa | - | - | - | - |
| 1787912520 | 21.67° C | 57% | 1004.9 hPa | - | - | - | - |
| 1787911664 | 22.22° C | 58% | 1005.1 hPa | - | - | - | - |
| 1787910944 | 21.67° C | 58% | 1005.4 hPa | - | - | - | - |
| 1787910064 | 21.67° C | 59% | 1005.6 hPa | - | - | - | - |
| 1787909290 | 21.11° C | 59% | 1005.7 hPa | - | - | - | - |
| 1787908410 | 20.56° C | 61% | 1005.9 hPa | - | - | - | - |
| 1787907620 | 20° C | 62% | 1005.9 hPa | - | - | - | - |
| 1787906804 | 19.44° C | 62% | 1006 hPa | - | - | - | - |
| 1787905924 | 19.44° C | 65% | 1006.1 hPa | - | - | - | - |
| 1787905195 | 20.56° C | 65% | 1006.2 hPa | - | - | - | - |
| 1787904464 | 18.89° C | 66% | 1006.3 hPa | - | - | - | - |
| 1787903614 | 18.33° C | 67% | 1006.2 hPa | - | - | - | - |
| 1787902880 | 19.44° C | 69% | 1006.2 hPa | - | - | - | - |
| 1787902115 | 18.33° C | 71% | 1006.3 hPa | - | - | - | - |
| 1787901239 | 17.22° C | 72% | 1006.4 hPa | - | - | - | - |
| 1787900470 | 17.22° C | 74% | 1006.3 hPa | - | - | - | - |
| 1787899664 | 16.11° C | 75% | 1006.1 hPa | - | - | - | - |
* Rain since midnight (hover to see other rain measurements)
** Current wind speed in m/s (hover to see current wind gust speed)